Regional Weather Roundup
Issued by NWS

Home | Current Version | Previous Version | Text Only | Print | Product List | Glossary Off
Versions: 1 2 3 4 5 6 7 8 9 10 11 12 13 14 15 16 17 18 19 20 21 22 23 24 25 26 27 28 29 30 31 32 33 34 35 36 37 38 39 40 41 42 43 44 45 46 47 48 49 50

000
ASUS45 KBOI 281410
RWRID
WEATHER ROUNDUP FOR IDAHO
NATIONAL WEATHER SERVICE BOISE ID
700 AM MST FRI NOV 28 2014

NOTE: "FAIR" INDICATES FEW OR NO CLOUDS BELOW 12000 FEET
WITH NO SIGNIFICANT WEATHER AND/OR OBSTRUCTIONS TO VISIBILITY

IDZ012-014-281500-
SOUTHWEST IDAHO


CITY           SKY/WX    TMP DP  RH WIND       PRES   REMARKS
BOISE          CLOUDY    40  39  97 SE3       29.85F
CALDWELL       NOT AVBL
MOUNTAIN HOME  CLOUDY    41  41  99 E14       29.87F
$$

IDZ016-017-281500-
SOUTHCENTRAL IDAHO


CITY           SKY/WX    TMP DP  RH WIND       PRES   REMARKS
BURLEY         CLOUDY    52  22  30 S17       29.90F
JEROME         CLOUDY    45  26  47 E3        29.92F
TWIN FALLS     CLOUDY    54  24  31 S14       29.91S
$$

IDZ019>023-281500-
SOUTHEAST IDAHO


CITY           SKY/WX    TMP DP  RH WIND       PRES   REMARKS
IDAHO FALLS    MOCLDY    37  26  64 SW9       29.90F WCI  30
POCATELLO      CLEAR     43  26  51 N7        29.92F
REXBURG        MOCLDY    42  25  50 SW8       29.89F
$$

IDZ006-010-011-018-031-032-281500-
CENTRAL IDAHO MOUNTAINS


CITY           SKY/WX    TMP DP  RH WIND       PRES   REMARKS
MCCALL         LGT RAIN  37  35  92 N7        29.84F WCI  32
HAILEY         PTCLDY    34  30  86 W6        29.96F WCI  29
STANLEY          N/A     45  15  30 W20G32    29.94R
SALMON         CLOUDY    45  30  57 CALM      29.79S
CHALLIS        PTCLDY    39  27  62 E5        29.84R
$$

IDZ002-004-006-007-026-281500-
NORTHERN IDAHO


CITY           SKY/WX    TMP DP  RH WIND       PRES   REMARKS
LEWISTON       CLOUDY    57  43  59 S17G28    29.66F
LOWELL           N/A     42  40  92 CALM      29.77F
COEUR D`ALENE  CLOUDY    50  41  71 S16       29.57F
MULLAN PASS    CLOUDY    35  35 100 SW17G33   29.61S FOG     WCI  25
$$


USA.gov is the U.S. government's official web portal to all federal, state and local government web resources and services.